Race Results for
Madera County Stage Race
Madera, CA
(Event Information)
Time Trial on 03/12/2011

Note: Ranking points are NOT upgrade points. An explanation of ranking points can be found here.


Men - Cat 5

 Place Points NameCity, StateTime USAC #BibTeam
1540.00Ethan Sopenski   Chardon Ohio26:15.24 329942  399 
2545.00Keith Brodsky   Chatsworth, CA26:50.64 230882  389 LA County Bicycle Coalition
3550.00Mark Lawrence   Honolulu, HI27:28.74 337634  396 
4555.00ben egger   Livermore, CA27:41.60 289147  392 
5560.00Blake Rowan   San Luis Obispo, CA27:56.43 338426  398 California Polytechnic-San Luis Obispo
6565.00Sef Jaimes   San Luis Obispo, CA27:56.58 332978  395 SLO Nexus-Gym One
7570.00Jason Adley   Fresno, CA27:57.66 303050  387 Momentum Racing California
8575.00Rocky Fletcher   Sacramento , CA27:59.01 324460  393 Rio Strada Racing
9580.00James Copsey   Salinas, CA28:07.48 319902  391 
10585.00John Oakes   Palo Cedro, CA31:42.91 231437  397 Redding Velo
11590.00Josh Cohn   El Cerrito, CA52:42.6 303868  390 Mission Cycling

Men - Cat 5 - Master - 35-99

 Place Points NameCity, StateTime USAC #BibTeam
1540.00Ken Stroub   Porterville, CA25:18.75 100490  919 Youngs Comm. Trans./Yokohl Ranch Racing
2547.14Eric Henson   Visalia, CA27:27.64 330060  917 Youngs Comm. Trans./Yokohl Ranch Racing
3554.29George Chinn   Madera, CA27:39.65 81950  920 Stevens Bicycle Racing
4561.43Renard Ihlenfeld   San Francisco, CA28:30.01 335036  918 Dolce Vita Cycling
5568.57John Christian   Danville, CA45:33.77 333186  921 
6575.71Ron Hicks   Clovis, CA14:40.08 317018  922 
7582.86Blake Rowan   San Luis Obispo, CA21:00.79 338426  925 California Polytechnic-San Luis Obispo
8590.00Mike Krynock   Morgan Hill , CA21:32.98 210102  924 

Men - Cat 4

 Place Points NameCity, StateTime USAC #BibTeam
1499.61Dana Skriver   Pasadena, CA22:55.64 298053  268 
2501.81Chris Schaper   Los Angeles, CA24:17.56 271294  266 
3504.02Allen Brumm   Foster City, CA24:21.28 195431  233 Webcor/Alto Velo
4506.22Vitaly Gashpar   San Francisco, CA24:37.58 273905  237 Colavita Racing
5508.43Joseph Booth   Fresno, CA24:48.50 188844  230 Momentum Racing California
6510.63corey duren   Chico, CA24:49.51 320490  234 Chico Corsa Cycling Club
7512.84Anthony Lopipero   Pleasant Hill, CA24:51.41 305627  250 Fremont Bank Cycling Team
8515.04Allan Armstrong   Los Altos, CA24:56.52 51079  226 Webcor/Alto Velo
9517.25Ryan Johnson   San Francisco, CA25:07.67 288483  246 Team Mike's Bikes
10519.45Jason Brasel   Nashville, TN25:10.84 287349  231 Davis Bike Club Race Team
11521.66David Grundman   Davis, CA25:12.03 240540  242 Davis Bike Club Race Team
12523.86Garth Jackson   Minden, NV25:26.43 247512  245 Alta Alpina Cycling Club
13526.07Diego Binatena   Playa Del Rey, CA25:36.68 253770  229 Team Specialized Racing Juniors
14528.27Stephen Shafer   Springville, CA25:36.94 318242  267 Youngs Comm. Trans./Yokohl Ranch Racing
15530.47Isaac Sparling   San Francisco, CA25:43.14 331080  269 Dolce Vita Cycling
16532.68Zach Starnes   San Francisco, CA26:01.29 275960  270 Dolce Vita Cycling
17534.88John Becker   Sanfrancisco, CA26:08.05 284814  228 Team Mike's Bikes
18537.09Daniel Lebson   Folsom, CA26:10.27 295237  249 Rio Strada Racing
19539.29Ryan Brooks   Fresno, CA26:15.24 331304  232 Stevens Bicycle Racing
20541.50Ryan Odell   Sacramento, CA26:16.86 288200  257 Davis Bike Club Race Team
21543.70Raoul MartinBlouin   Walnut Creek, CA26:18.02 303631  253 Taleo Racing
22545.91Leland Jones   Fresno, CA26:28.18 107204  247 Vapor Racing
23548.11Kenneth Gonzales   Petaluma, CA26:32.95 303655  238 
24550.32Oliver Weiss   Roseville, CA26:41.24 79603  273 Rio Strada Racing
25552.52Ryan Grant   San Francisco, CA26:45.77 253950  240 All Sport-Team Swift
26554.73Ryan Oakes   Chico, CA26:45.92 258824  256 Bicycle Planet
27556.93Tomas Mundarain   Clovis, CA26:48.51 332902  255 Momentum Racing California
28559.14Ryan Malm   Sacramento, CA26:50.03 296229  252 Davis Bike Club Race Team
29561.34Stanley Goto   Petaluma, CA26:50.08 254829  239 All Sport-Team Swift
30563.54Daniel Firu   Sanjose, CA27:03.63 303974  236 SJBC
31565.75Robbie Farrens   Stockton, CA27:05.78 289433  235 Rocket Sports Racing
32567.95Tommy Lucas   Santa Rosa, CA27:11.88 285713  251 All Sport-Team Swift
33570.16nick baird   Sanger, CA27:22.22 309596  227 Sierra Pacific Racing
34572.36Curtis Hong   Dublin, CA27:27.63 305875  244 
35574.57Michael Watts   Mill Valley, CA27:41.50 211968  272 
36576.77Eddie Sahyoun   Rocklin, CA27:42.04 291352  265 Rio Strada Racing
37578.98cody greer   Sanger, CA27:43.62 309590  241 Sierra Pacific Racing
38581.18Timothy Turnbull   Castroville, CA27:49.73 309759  271 Los Gatos
39583.39marc mendoza   Santaclara, CA28:10.55 304967  254 SJBC
40585.59Marc-Cedric Latreille   Vallejo, CA28:44.56 260294  248 Metromint Cycling
41587.80Bryan Yates   Los Angeles, CA28:52.59 329164  274 
42590.00Steven Oliver   San Francisco, CA28:55.89 250702  259 Mission Cycling

Men - Cat 4 - Master - 35-99

 Place Points NameCity, StateTime USAC #BibTeam
1494.04Richard Coyle   Granite Bay, CA23:53.56 277158  443 Rio Strada Racing
2495.92Tim Petersen   Alamo24:11.51 204058  480 SF Sport & Spine Pt Racing
3497.80Kevin Miller   Granite Bay, CA24:19.15 307115  472 Victory Velo
4499.68Steve Ward   Folsom, CA24:21.07 286653  497 Team Bicycles Plus/Sierra Nevada
5501.57Dave Dunkley   Clayton, CA24:25.82 195560  449 Wells Fargo Racing Team
6503.45Ken Doyle   Santa Barbara, CA24:36.64 9958  447 Polli Veloce
7505.33Oliver Ryan   Sausalito, CA24:40.08 304360  485 R4R-Make A Wish
8507.21Jeremiah Root   Fresno, CA24:41.00 30525  483 Stevens Bicycle Racing
9509.09John Gallagher   San Ramon, CA24:44.41 304284  452 Taleo Racing
10510.97Mitch Karno   Santa Barbara, CA24:44.45 205902  465 Polli Veloce
11512.86Shane Calkins   Gold River, CA24:46.33 254786  439 Team Bicycles Plus/Sierra Nevada
12514.74Joshua Houssiere   Fresno, CA24:52.05 66056  462 Stevens Bicycle Racing
13516.62Patrick Hampton   Cambria, CA24:53.44 218958  457 ArtsCyclery.com/Wild Horse Wines
14518.50Mark King   Livermore, CA24:54.41 136967  466 Christian Cycling-Hammer Nutrition
15520.38Timothy Zsoka   Folsom, CA25:00.18 239889  499 Team Bicycles Plus/Sierra Nevada
16522.26Gilbert Tarin   Knightsen, CA25:02.94 252241  492 Taleo Racing
17524.15John Collins   Folsom, CA25:05.68 231774  441 Team Revolutions
18526.03Gregg Roh   Sacramento, CA25:11.71 58416  482 Sacramento Golden Wheelmen
19527.91Brad Crow   Danville, CA25:15.78 271159  444 Wells Fargo Racing Team
20529.79Kevin ODonnell   Greenbrae, CA25:18.40 242028  477 Taleo Racing
21531.67Todd Munk   Morgan Hill, CA25:27.04 296426  474 SJBC
22533.55Darron Sturgeon   Reno, NV25:34.14 286787  491 Taleo Racing
23535.43David Haslemann   Folsom, CA25:38.62 277664  458 Rio Strada Racing
24537.32Blake James   Clovis, CA25:41.63 326254  463 Momentum Racing California
25539.20Ryan Nickelson   Danville, CA25:51.90 227002  476 Wells Fargo Racing Team
26541.08Jeff Slaton   Davis, CA25:52.24 293126  488 Davis Bike Club Race Team
27542.96Chris Toshok   San Francisco, CA25:57.45 295329  494 Dolce Vita Cycling
28544.84Daniel Onorato   Santa Barbara, CA25:59.80 183641  478 Polli Veloce
29546.72Ron Meskis   Stockton, CA26:18.91 305400  471 Michael David Winery Cycling Team
30548.61Douglas McKenzie   Santa Rosa, CA26:20.06 201588  470 Fightin' Bobas
31550.49Daniel Petersen   Santa Rosa, CA26:21.89 280078  479 Fightin' Bobas
32552.37Keith Griffin   Stockton, CA26:22.40 14170  455 Kinetic Cycles/GBI
33554.25Rann Valdez   Pleasant Hill, CA26:22.57 142965  496 Stone Racing
34556.13Michael Fine   Vacaville, CA26:23.97 76882  450 Precision Stone Racing
35558.01Chad Cheadle   Petaluma, CA26:27.61 209823  440 Colavita Racing
36559.89John Gates   Carpinteria, CA26:34.72 295313  453 Polli Veloce
37561.78Roger Steuble   Jackson, CA26:35.34 305013  489 Team Revolutions
38563.66Chris Hernikl   Pleasant Hill, CA26:35.70 304027  459 Taleo Racing
39565.54Tobin Richardson   El Macero, CA26:36.55 306124  481 Davis Bike Club Race Team
40567.42Mark Fiori   Folsom, CA26:42.03 112253  451 Davis Bike Club Race Team
41569.30Trevor Cadogan   Roseville, CA26:43.58 284507  438 Rio Strada Racing
42571.18Steve Daniels   Santa Barbara, CA26:43.97 87017  445 Polli Veloce
43573.07Michael Saba   Oakland, CA26:50.07 285459  486 Taleo Racing
44574.95Grant Russell   Cool, CA26:52.58 218611  484 Sacramento Golden Wheelmen
45576.83Nathan Trueblood   Davis, CA26:55.68 35982  495 Davis Bike Club Race Team
46578.71Justin Morgan   Fresno, CA27:03.93 238135  473 Stevens Bicycle Racing
47580.59Rockie Stevens   Clovis, CA27:08.16 286795  490 Vapor Racing
48582.47Douglas McDonald   San Francisco, CA27:20.71 75723  469 R4R-Make A Wish
49584.36Chad Covington   Clovis, CA27:31.84 7956  442 Sierra Pacific Racing
50586.24kevin jeffers   Santa Rosa, CA27:41.85 307307  464 Red Peloton
51588.12Mark Klein   Pleasanton, CA27:44.63 304850  467 Christian Cycling-Hammer Nutrition
52590.00Francis Goldsberry   Sacramento, CA28:13.14 132927  454 Sacramento Golden Wheelmen

Men - Cat 3

 Place Points NameCity, StateTime USAC #BibTeam
1399.24Lance Newey   Fair Oaks, CA22:47.17 202161  182 Team Bicycles Plus/Sierra Nevada
2401.97Wes Holloway   Dublin Ca22:50.03 300531  160 Echelon Racing Development
3404.69Alexander Freund   Davis, CA22:52.19 222322  149 Davis Bike Club Race Team
4407.42Steven Vickery   Chico, CA22:53.54 236946  197 Chico Corsa Cycling Club
5410.14Michael Kopp   San Francisco, CA23:00.23 286893  166 Taleo Racing
6412.87Roger Martin   Danville, CA23:10.23 276924  173 Wells Fargo Racing Team
7415.59Hanns Detlefsen   Concord, CA23:20.40 208769  145 Taleo Racing
8418.32Alec Kassin   San Anselmo, CA23:21.20 257809  163 Whole Athlete-Specialized
9421.04Johannes Kratz   Cambridge, MA23:21.70 286729  167 Metromint Cycling
10423.77Chris Parod   Mather, CA23:25.99 270992  186 Team Bicycles Plus/Sierra Nevada
11426.49scott heather   Chico, CA23:26.60 306577  156 Chico Corsa Cycling Club
12429.22Scott Peifer   Granite Bay, CA23:27.76 265877  187 Mercedes Benz/Folsom Bike
13431.94Roger Hogan   Fresno, CA23:30.06 285192  159 Momentum Racing California
14434.67Nick Kersmarki   Santa Rosa, CA23:36.04 226913  164 Red Peloton
15437.39Kenny Strickland   San Ramon, CA23:38.93 270965  192 SJBC
16440.12Marcel Appelman   Orange, CA23:46.30 293642  125 Dolce Vita Cycling
17442.84Chad Rosser   San Jose, CA23:47.93 286506  189 SJBC
18445.57Nicholas Newcomb   Nicasio, CA23:49.15 258299  181 Whole Athlete-Specialized
19448.29Michael Painter   Chico Ca23:53.94 289184  185 Chico Corsa Cycling Club
20451.02Mark Chaisson   Seattle, WA23:56.54 90030  137 Peninsula Velo/Pomodoro
21453.74Jason Cruser   Walnutcreek, CA23:59.84 287526  141 Wells Fargo Racing Team
22456.47William Myers   Carmichael, CA24:00.96 306325  179 Fremont Bank Cycling Team
23459.19wilson gorrell   Folsom, CA24:01.25 254622  152 Mercedes Benz/Folsom Bike
24461.92Scott Witthoff   San Francisco, CA24:06.58 114899  158 Fusion Sport USA
25464.64Jacob Berkman   San Francisco, CA24:06.90 303643  129 Dolce Vita Cycling
26467.37Guy Van Natta   Clovis, CA24:07.00 218823  196 Momentum Racing California
27470.09Jack Maddux   Fresno24:07.53 296879  172 Team Specialized Racing Juniors
28472.82Roland Freund   Davis, CA24:09.61 226676  150 Davis Bike Club Race Team
29475.54Zeke Mostov   San Francisco, CA24:10.15 294912  178 SJBC
30478.27Tyler Williams   Shafter, CA24:11.87 294531  200 All Sport-Team Swift
31480.99Lutz Braun   Clovis, CA24:12.96 258096  135 Momentum Racing California
32483.72Michael Claudio   West Sacramento, CA24:13.12 248052  139 Davis Bike Club Race Team
33486.44Jason Hanchett   Albany, CA24:13.92 255669  154 Berkeley Bicycle Club (BBC)
34489.17Geoffrey Davis   San Luis Obispo, CA24:20.40 205688  142 ArtsCyclery.com/Wild Horse Wines
35491.89Sean McDonald   Wallace, CA24:22.43 262357  174 Michael David Winery Cycling Team
36494.62Garrett Hankins   Carmichael, CA24:23.84 298571  155 Team Bicycles Plus/Sierra Nevada
37497.35Eliot Logan   Palo Alto, CA24:24.95 182819  170 Webcor/Alto Velo
38500.07dan BOYLE   Santarosa, CA24:27.38 307878  132 Red Peloton
39502.80Steve Thomsen   Reno, NV24:28.50 245436  194 Great Basin Imaging Cycling Team
40505.52Monte Boyle   Simms, MT24:28.87 218669  133 Team Clover
41508.25Alexander Hsing   Stanford, CA24:30.13 272582  161 Webcor/Alto Velo
42510.97Bernhard Stonas   Hayward, CA24:30.13 67169  191 Berkeley Bicycle Club (BBC)
43513.70David Doll   Merced, CA24:34.88 281768  146 Topsport
44516.42Naveen Molloy   Sanfrancisco, CA24:37.58 283139  175 Metromint Cycling
45519.15Chris Becker   Orinda, CA24:40.44 287692  128 Taleo Racing
46521.87Dedrick Kon   La Crescenta, CA24:41.97 286042  147 Team Helen's
47524.60David Rossow   Los Gatos, CA24:48.47 232665  190 Webcor/Alto Velo
48527.32Josef Nygaard   San Francisco, CA24:58.81 227889  183 All Sport-Team Swift
49530.05Cody Tapley   Citrus Heights, CA24:59.31 234610  193 Whole Athlete-Specialized
50532.77Matthew Davis   Reno, NV25:12.52 237845  143 Team Clover
51535.50Stone Beck   Fresno, CA25:12.65 219237  127 Stevens Bicycle Racing
52538.22Eric Cinnamon   Rohnert Park, CA25:14.31 273013  138 Red Peloton
53540.95Robert Orcutt   Scotts Valley, CA25:16.69 269340  184 Webcor/Alto Velo
54543.67Matthew Valencia   Los Altos, CA25:21.64 255576  195 Team Specialized Racing Juniors
55546.40Rob Brandt   Ennis, MT25:37.55 298803  134 Great Basin Imaging Cycling Team
56549.12Chris Callahan   Alamo, CA25:40.60 242571  136 Wells Fargo Racing Team
57551.85Chris LaBerge   Napa, CA25:41.23 229950  168 Team Specialized Racing Juniors
58554.57Andrew Biscardi   San Jose, CA25:43.39 280347  130 SJBC
59557.30Joakim Vinberg   Cupertino, CA25:44.23 226014  198 R4R-Make A Wish
60560.02Nick Kinney   Windsor, CA25:53.51 255460  165 Whole Athlete-Specialized
61562.75Santiago Bolon   San Jose, CA26:13.48 195384  131 ICCC-St. Louis
62565.47Brentley Campbell   Fulton, CA26:36.38 240375  140 All Sport-Team Swift
63568.20Rick Graves   San Rafael, CA27:23.55 100365  153 Taleo Racing
64570.92Alvaro Mosquera   Sacramento, CA27:51.83 236809  177 Team Bicycles Plus/Sierra Nevada
65573.65Kashy Ghazzagh   Santa Rosa, CA28:10.50 295719  151 Red Peloton
66576.37Matthew Dearing   Fresno, CA29:04.45 8970  144 Momentum Racing California
67579.10Scott Hellam   Fresno, CA29:16.59 287510  157 Momentum Racing California
68581.82Neema Assemi   Fresno, CA29:22.17 306675  126 Sierra Pacific Racing
69584.55Jeff Watson   Elk Grove, CA30:31.93 293136  199 Team Bicycles Plus/Sierra Nevada
70587.27Eric Robertson   Visalia, CA32:23.59 58116  188 Momentum Racing California
71590.00Edward Lund   Fresno, CA33:22.26 276566  171 Momentum Racing California

Men - Cat 1/2/3/4 - Master - 55-99

 Place Points NameCity, StateTime USAC #BibTeam
1436.80Paul Gossi   Reno, NV23:29.69 13762  764 Truckee Bicycle Team
2440.95Steven Palladino (1 - Cat3)   Santa Rosa, CA23:43.60 195557  778 Fightin' Bobas
3445.11Mac Carey   Pleasant Hill, CA23:45.67 249301  757 Taleo Racing
4449.26Scott Hennessy   Salinas, CA23:49.85 15827  768 VOS Racing
5453.42Jeff Townsend   Los Gatos, CA24:06.46 262232  786 Fightin Bobas
6457.57Mark Caldwell   Moraga, CA24:08.18 40039  755 Morgan Stanley Smith Barney/Specialized
7461.73Lloyd Rath   San Francisco, CA24:19.70 65453  779 Team Hammer Nutrition
8465.88Glenn Mattsson (2 - Cat3)   Santa Rosa, CA24:27.31 100331  776 Fightin' Bobas
9470.04Edgar Leano   St Cloud, FL24:40.70 224847  773 Truckee Bicycle Team
10474.19Robert Montague   Aptos, CA24:45.02 276007  777 Team Bicycle Trip/Symantec
11478.35Josef Lemire   San Francisco, CA24:45.97 46799  774 SHO-AIR/ SERT
12482.50David Stockwell   San Jose, CA24:56.54 53052  783 SJBC
13486.66Steven Grusis   Madera, CA25:00.28 60756  765 Rubber Soul/CSC Racing Team
14490.81Brian Fessenden   Orinda, CA25:18.63 54692  761 Morgan Stanley Smith Barney/Specialized
15494.97James Langley   Santa Cruz, CA25:31.88 20326  772 Team Bicycle Trip/Symantec
16499.12Greg Bollella   Redwood City, CA25:35.19 235126  751 Webcor/Alto Velo
17503.28Manuel Borges   Vacavaille, CA25:52.72 254360  752 VOS Racing
18507.43Larry Hampson   Marina, CA25:55.77 49323  766 VOS Racing
19511.59Richard Shields   Fremont, CA25:58.97 140693  780 Team Hammer Nutrition
20515.74Jack Kelso   Pleasanton, CA26:09.43 202171  769 Team Hammer Nutrition
21519.90Paul Chuck   Berkeley, CA26:15.66 51558  758 Morgan Stanley Smith Barney/Specialized
22524.05Nelson Frink (1 - Cat4)   Sutter, CA26:20.33 268821  763 Body Concepts
23528.20Bob Ebe   Lafayette, CA26:32.44 229180  759 Taleo Racing
24532.36Scott Calley   Monterey, CA26:44.55 195999  756 VOS Racing
25536.51Albert Barreto   Monterey, CA26:49.67 195743  750 VOS Racing
26540.67Franz Broz   Pebble Beach, CA26:56.67 155801  753 VOS Racing
27544.82Dana Farmer   Gold River, CA26:56.68 150815  760 VOS Racing
28548.98Phillip Heiman   Penngrove, CA27:05.27 204100  767 Colavita Racing
29553.13Douglas Lindsay   Truckee, CA27:16.70 21257  775 Truckee Bicycle Team
30557.29Christopher Kolm   Moraga, CA27:30.99 254578  771 Taleo Racing
31561.44Robert Strain (2 - Cat4)   San Ramon, CA27:48.35 331124  785 Taleo Racing
32565.60Norman Smith   Santa Rosa, CA27:49.44 126966  781 Fightin' Bobas
33569.75Michael Freeman   Martinez, CA27:58.67 12357  762 Team Hammer Nutrition
34573.91Joseph Storm   Alamo27:59.18 304801  784 Taleo Racing
35578.06Larry Knaus (3 - Cat3)   Santa Clara, CA28:08.31 48681  770 Webcor/Alto Velo
36582.22Craig Snider   Benicia, CA32:28.42 297048  782 Taleo Racing
37586.37Harry Williamson   Healdsburg, CA34:23.12 38449  787 Fightin' Bobas

Men - Cat 1/2/3 - Master - 35-99

 Place Points NameCity, StateTime USAC #BibTeam
1305.89Daniel Bryant   Carmichael, CA21:26.62 195929  830 Mercedes Benz/Folsom Bike
2312.50Christopher Lyman   Napa, CA21:32.19 267171  856 Team Specialized Racing Masters
3319.10Matthew Carinio   San Luis Obispo, CA21:45.08 6109  832 ArtsCyclery.com/Wild Horse Wines
4325.71Jonathan Lee   Santa Rosa, CA21:46.83 217858  853 Red Peloton
5332.32Christopher Phipps   San Francisco, CA21:52.82 233623  864 IronDataThirstyBearCycling.com
6338.93Michael Hernandez   Oakland, CA22:13.25 136641  848 Great Basin Imaging Cycling Team
7345.53Kevin Klein   Menlo Park, CA22:18.06 47388  851 Yahoo Cycling Team
8352.14Jason Grefrath   Sacramento, CA22:18.62 281883  844 Taleo Racing
9358.75Brian Peterson (1 - Cat2)   Santa Cruz, CA22:24.65 196252  863 Team Bell Lap
10365.36Brian Choi   Folsom, CA22:24.77 52849  833 Stuzio Cycling Club
11371.96Jason Boynton   Yuba City, CA22:39.16 4526  827 Mercedes Benz/Folsom Bike
12378.57Stephen Pelaez   San Francisco, CA22:51.33 64481  862 Bell Lap Racing
13385.18Paul Dyrwal   San Rafael, CA23:01.52 254245  838 IronDataThirstyBearCycling.com
14391.78Gregory Gambetta   Sacramento, CA23:02.89 212916  843 Mercedes Benz/Folsom Bike
15398.39David Levine   Alamo, CA23:03.91 145573  854 Taleo Racing
16405.00Gregory Anderson   Vacaville, CA23:10.88 90802  825 Morgan Stanley Smith Barney/Specialized
17411.61John Devere   Madera, CA23:13.52 297594  837 Sierra Pacific Racing
18418.21Matt Connolly (2 - Cat2)   Sacramento, CA23:14.38 302694  834 Rio Strada Racing
19424.82Lance Cameron   Pacific Grove, CA23:18.59 5900  831 Don Chapin Monterey Bay Racing Team
20431.43Dean LaBerge   Napa, CA23:19.97 67041  852 Team Specialized Racing Masters
21438.03Steve Heaton   Santa Cruz, CA23:33.70 15612  847 Team Bicycle Trip/Symantec
22444.64Michael Ricks   Stockton, CA23:33.72 250319  867 Delta Velo
23451.25David Nader   San Mateo, CA23:40.34 175914  857 Peninsula Velo/Pomodoro
24457.86Jeromy Cottell   Redwood City, CA23:55.40 273912  835 Peninsula Velo/Pomodoro
25464.46Steve Offerman   Sacramento, CA23:56.17 81992  860 Rio Strada Racing
26471.07Murray Swanson (3 - Cat2)   Woodside, CA23:57.52 206144  870 Peninsula Velo/Pomodoro
27477.68Chad DeMasi (4 - Cat2)   Davis, CA24:04.57 158049  836 Rocknasium
28484.28James Hardy   Oakland, CA24:10.64 80116  846 Squadra Ovest Cycling
29490.89Nathan Erickson   San Luis Obispo, CA24:16.48 63004  839 ArtsCyclery.com/Wild Horse Wines
30497.50Ken Gallardo   Belmont, CA24:23.68 255453  842 IronDataThirstyBearCycling.com
31504.11Toby Long   Oakland, CA24:29.91 262539  855 Squadra Ovest Cycling
32510.71Tom Rosencrantz   Mill Valley, CA24:30.98 91336  868 Taleo Racing
33517.32Ross Tinline   San Carlos, CA24:38.02 35623  871 Peninsula Velo/Pomodoro
34523.93Jason Brown   Lodi, CA24:57.13 53115  828 Great Basin Imaging Cycling Team
35530.54James Herzman   Truckee, CA24:58.08 207922  849 Great Basin Imaging Cycling Team
36537.14Brian Zimny   Sacramento, CA25:01.17 61117  872 Team City Sacramento
37543.75Blake Reed   Grover Beach, CA25:26.22 29369  866 ArtsCyclery.com/Wild Horse Wines
38550.36Robert Sorenson   Palo Alto, CA25:46.45 33491  869 Millcreek Bicycles
39556.96Peter Nicholson   Mill Valley26:16.28 219558  858 Whole Athlete-Specialized
40563.57Ryan Bennett (5 - Cat2)   San Francisco, CA26:53.67 180391  826 Divine Electric Norcal
41570.18Jon Gallagher   Heber, UT28:04.29 61600  841 Cole Sport
42576.79David Brunetti (1 - Cat3)   Modesto, CA28:22.26 5236  829 
43583.39Rowel (Rob) Palisoc   Berkeley, CA29:12.78 195972  861 Major Motion Cycling Club
44590.00William Innes   Menlo Park, CA30:35.43 52412  850 Team Specialized Racing

Men - Cat 1/2/3 - Master - 45-99

 Place Points NameCity, StateTime USAC #BibTeam
1334.77Cale Reeder   Cameron Park, CA21:52.03 272237  665 Echelon Gran Fondo/Zteam
2339.68Lawrence Nolan   Fremont, CA22:22.55 26205  657 Team Specialized Racing Masters
3344.59Bubba Melcher   Reno, NV22:47.29 23961  651 Team Clover
4349.49Thomas Coulter   Rocklin, CA22:57.87 74102  633 Morgan Stanley Smith Barney/Specialized
5354.40John Ford   Redwood City, CA23:08.39 129994  639 Morgan Stanley Smith Barney/Specialized
6359.31Robert Napieralski   Springville, CA23:11.36 271499  655 Sacramento Golden Wheelmen
7364.22Dirk Himley   San Jose, CA23:11.75 86797  645 Echelon Gran Fondo/Zteam
8369.13Scott Wienker   Davis, CA23:13.01 290904  682 Davis Bike Club Race Team
9374.04Max Thompson   San Anselmo, CA23:17.17 80642  678 IronDataThirstyBearCycling.com
10378.94Jon Ornstil   San Francisco, CA23:22.85 71802  661 
11383.85Gerald Roberts   Sacramento, CA23:24.69 30073  669 Team Bicycles Plus/Sierra Nevada
12388.76Chris Black   San Luis Obispo, CA23:31.72 3814  628 Morgan Stanley Smith Barney/Specialized
13393.67John Steggall   Davis, CA23:32.76 135891  677 Davis Bike Club Race Team
14398.58Jeremy Wire   Menlo Park, CA23:37.99 285056  685 SJBC
15403.49Robert Anderson   Mill Valley, CA23:39.29 1688  625 Team Specialized Racing Masters
16408.39Hunter Ziesing   Bel Tiburon, CA23:40.77 39478  686 Echelon Gran Fondo/Zteam
17413.30Christopher Bowlus   Davis, CA23:40.79 244782  630 Davis Bike Club Race Team
18418.21Michael Vetterli   Alamo, CA23:45.74 214565  681 Olympic Club
19423.12John Hancock   Sacramento, CA23:48.61 195844  644 Team Bicycles Plus/Sierra Nevada
20428.03Mike Gadow (1 - Cat2)   Dublin, CA23:58.06 12619  641 SJBC
21432.94Michael Boehme   Windsor, CA23:58.37 252576  629 Colavita Racing
22437.84Alex Osborne (2 - Cat2)   Berkeley, CA24:06.49 26855  662 IronDataThirstyBearCycling.com
23442.75Kevin Willitts   S Lake Tahoe, CA24:08.54 192774  683 Team Bicycles Plus/Sierra Nevada
24447.66Clark Foy   Los Gatos, CA24:23.63 255066  640 SJBC
25452.57John O'Neill (3 - Cat2)   San Mateo, CA24:26.51 52722  660 Team Clover
26457.48Daniel Smith   Menlo Park, CA24:34.21 33087  674 Morgan Stanley Smith Barney/Specialized
27462.38Mark Vandenberghe   Lafayette, CA24:41.54 36393  680 Wells Fargo Racing Team
28467.29Peter Rosser   Reno, NV24:43.01 147318  670 Team Clover
29472.20Andrew Nevitt (4 - Cat2)   Saratoga, CA24:46.80 47463  656 SJBC
30477.11Mario Reyes   Bakersfield, CA24:53.38 54095  666 Youngs Comm. Trans./Yokohl Ranch Racing
31482.02Thomas Kellner   Sacramento, CA24:53.44 195574  647 Davis Bike Club Race Team
32486.93Spencer Kenner   Davis, CA24:54.43 86651  648 Rocknasium
33491.83Steven Kirby   Santa Rosa, CA24:57.73 271079  649 Colavita Racing
34496.74Rodney Spradlin   El Dorado Hills, CA24:59.10 122266  676 Rocknasium
35501.65Ken Todd   Folsom, CA25:01.07 174881  679 Team Bicycles Plus/Sierra Nevada
36506.56Shawn Oliver   St. Helena, CA25:11.57 46241  659 Morgan Stanley Smith Barney/Specialized
37511.47Daryl Spano   Fremont, CA25:14.84 146243  675 SJBC
38516.38Rick Morgan   Los Altos, CA25:27.08 267310  654 SJBC
39521.28Joseph Davis (5 - Cat2)   Camarillo, CA25:29.64 8806  635 Team Bicycles Plus/Sierra Nevada
40526.19David Montgomery   Olympic Valley, CA25:32.95 302935  653 Truckee Bicycle Team
41531.10Michael Camarena   Lindsay, CA25:48.02 47386  631 Youngs Comm. Trans./Yokohl Ranch Racing
42536.01Fred Schnaars   Davis, CA25:59.88 65032  671 Davis Bike Club Race Team
43540.92Darryl Smith   Pleasanton, CA26:08.23 33092  673 Christian Cycling-Hammer Nutrition
44545.83Douglas Gonda   Truckee, CA26:10.05 13594  643 Team Bicycles Plus/Sierra Nevada
45550.73Carmelo Rios   San Jose, CA26:14.76 261379  667 Fightin' Bobas
46555.64Justin Eatinger   Incline Village, NV26:35.18 10382  636 Audi
47560.55Chris Courtney   Oakdale, CA26:52.00 47303  634 SJBC
48565.46Tim Lydon   Sunnyvale, CA27:05.96 21896  650 SJBC
49570.37Rod Fernandez   Dixon, CA27:53.30 265576  638 Davis Bike Club Race Team
50575.28Randy Armstrong   Morgan Hill, CA28:23.92 47828  626 SJBC
51580.18James Pappe   Bakersfield, CA28:28.15 94207  664 Youngs Comm. Trans./Yokohl Ranch Racing
52585.09Michael Rizzo   Morgan Hill, CA28:49.07 59049  668 SJBC
53590.00Vincent Gee (6 - Cat2)   Sacramento, CA30:32.98 13001  642 Team Bicycles Plus/Sierra Nevada

Men - Pro/Cat 1/2

 Place Points NameCity, StateTime USAC #BibTeam
1231.08Justin Rossi   Reno, NV0:21:21.60 298550  54 Marc Pro - Strava
2236.36Logan Loader (1 - Cat1)   Felton, CA0:21:32.09 198542  34 RideClean p/b PatentIt.com
3241.64Michael Githens (2 - Cat1)   Mountain View, CA0:21:39.76 232054  22 
4246.92Evan Huffman   El Dorado Hills, CA0:21:46.67 256955  25 California Giant Berry Farms/Specialized
5252.20Tore Nauta (1 - Cat2)   Los Gatos, CA0:21:46.97 237281  42 Webcor/Alto Velo
6257.47Daniel Bechtold (3 - Cat1)   Boise, ID0:21:47.00 286091  Hagens Berman Cycling
7262.75Jonathan Teeter   Guerneville, CA0:21:51.39 291414  65 Davis Bike Club Race Team
8268.03Kris Lunning   San Rafael, CA0:21:56.19 121729  37 Marc Pro - Strava
9273.31Eric Wohlberg   San Jose, CA0:22:01.79 128575  75 Form Fitness
10278.59Brian Buchholz (4 - Cat1)   San Francisco, CA0:22:14.04 189913  Webcor/Alto Velo
11283.87Vincent Owens   Fresno, CA0:22:15.45 242560  47 Sierra Pacific Racing
12289.14Brian Bosch (5 - Cat1)   Fresno, CA0:22:17.75 40703  11 Sierra Pacific Racing
13294.42donald hahn (2 - Cat2)   Reno, NV0:22:23.63 280149  24 Marc Pro - Strava
14299.70Russell White   Lafayette, CA0:22:26.53 236024  71 Davis Bike Club Race Team
15304.98Alex Brookhouse   Santa Rosa, CA0:22:30.06 241648  Echelon Racing Development
16310.26Kyle Torres   Laguna Niguel, CA0:22:30.82 264918  68 Team Specialized Racing Juniors
17315.53Joe Galloway   Exeter, CA0:22:32.31 242644  20 Sierra Pacific Racing
18320.81Jose Soltren (3 - Cat2)   Menlo Park, CA0:22:32.69 197227  61 Los Gatos
19326.09David Albrecht   Chico, CA0:22:33.07 47091  Chico Corsa Cycling Club
20331.37Johannes Steffens   Sanjose, CA0:22:34.29 290022  63 SJBC
21336.65John Wilk (6 - Cat1)   Oakland, CA0:22:38.71 199951  72 Webcor/Alto Velo
22341.93David Benkoski   Menlo Park, CA0:22:41.76 271685  Team Specialized Racing Juniors
23347.20Raffi Jilizian   Danville, CA0:22:42.21 187667  29 Form Fitness
24352.48Eric Sammuli   Escondido, CA0:22:42.63 256258  55 A Road Bike 4U Elite Team
25357.76Hendrik Pohl (7 - Cat1)   San Francisco, CA0:22:42.94 207753  51 Webcor/Alto Velo
26363.04Gregory White   Lafayette, CA0:22:45.25 246669  70 Davis Bike Club Race Team
27368.32Torey Philipp   El Dorado Hills, CA0:22:56.24 263055  49 Team Specialized Racing Juniors
28373.59Brian Kappus   Los Angeles, CA0:23:03.49 156543  30 A Road Bike 4U Elite Team
29378.87Michael Jasinski (8 - Cat1)   Rocklin, CA0:23:05.35 269476  27 Fremont Bank Cycling Team
30Craig Logan   0:23:05.79  35 
31389.43Nils Tikkanen   Santa Cruz, CA0:23:07.64 198331  67 Team Bicycle Trip/Symantec
32394.71Lang Reynolds (9 - Cat1)   Seattle, WA0:23:08.96 168449  52 Hagens Berman Cycling
33399.99Osvaldo Olmos (10 - Cat1)   San Luis Obispo, CA0:23:10.98 172541  45 California Giant Berry Farms/Specialized
34405.26Adam Carr   Colchester, VT0:23:11.65 208854  10 Form Fitness
35410.54Nicholas Oliver   El Dorado Hills, CA0:23:18.11 271541  44 Fremont Bank Cycling Team
36415.82Eric Losak (11 - Cat1)   San Clemente0:23:21.58 175239  36 A Road Bike 4U Elite Team
37421.10Tyler Brandt   Vallejo, CA0:23:22.83 210604  California Giant Berry Farms/Specialized
38426.38John Piasta   Santa Rosa, CA0:23:23.00 271963  50 All Sport-Team Swift
39431.65Andrew Lanier Jr (4 - Cat2)   Gilroy, CA0:23:23.63 226086  33 Team Specialized Racing Juniors
40436.93Eric Riggs   Antelope, CA0:23:25.28 191302  53 Yahoo Cycling Team
41442.21Jason King (12 - Cat1)   Napa, CA0:23:27.71 211026  31 Echelon Racing Development
42447.49William Zellmer   Missoula, MT0:23:29.95 225407  76 Team Specialized Racing Juniors
43452.77James LaBerge (13 - Cat1)   Napa, CA0:23:30.11 221376  32 Team Specialized Racing Juniors
44458.05Kennett Peterson   Boulder, CO0:23:30.37 256803  48 Hagens Berman Cycling
45463.32Brandon Trafton (14 - Cat1)   Sacramento, CA0:23:35.99 240033  69 California Giant Berry Farms/Specialized
46468.60Robert MacNeill   San Carlos, CA0:23:37.12 199599  38 Webcor/Alto Velo
47473.88Robert Scheffler   Alamo, CA0:23:40.48 239048  57 Fremont Bank Cycling Team
48479.16Alan Adams   Bozeman, MT0:23:43.02 198136  Lake Washington Velo
49484.44Marcus Smith   Pleasanton, CA0:23:46.83 209193  59 Team Specialized Racing Juniors
50489.71John Hunt   Fairfax, CA0:23:49.99 17154  62 California Giant Berry Farms/Specialized
51494.99Sean Smith   Oakland, CA0:23:54.04 204018  60 Webcor/Alto Velo
52500.27Julian Martinez   Santa Monica, CA0:23:58.69 214569  39 Fremont Bank Cycling Team
53505.55Dustin Diede   Napa, CA0:24:00.86 206844  12 Precision Stone Racing
54510.83Darren Basso (5 - Cat2)   Belmont, CA0:24:03.68 130973  Audi
55516.11Jeffrey Galland   Paradise, CA0:24:03.80 127804  19 Chico Corsa Cycling Club
56521.38Alton Dunnigan   Pleasant Hill, CA0:24:21.24 157044  15 Bicycle Planet
57526.66Graeme Galyer   San Jose, CA0:24:21.27 191195  21 
58Adan Thuss   0:24:28.16  66 
59537.22Christopher Flanagan   San Francisco, CA0:24:31.26 276118  18 All Sport-Team Swift
60542.50Anthony Ferretti   Oroville, CA0:24:56.00 283185  17 Chico Corsa Cycling Club
61547.77Robert Winder (6 - Cat2)   Lafayette, CA0:24:57.13 220285  74 HDR Racing p/b Lombardi Sports
62553.05Sydney Newsom   Fresno, CA0:25:00.73 258955  43 Sierra Pacific Racing
63558.33Christopher DuBois (7 - Cat2)   Irvine, CA0:25:13.73 203838  14 A Road Bike 4U Elite Team
64563.61Peter Taylor (8 - Cat2)   Walnut Creek, CA0:25:26.48 219859  64 California Giant Berry Farms/Specialized
65568.89Mark Sasser   Fresno, CA0:25:30.29 31332  56 SAFEWAY/PureRed Creative/Bicycles Plus
66574.17Keith Miller (15 - Cat1)   Los Gatos, CA0:26:40.62 53753  40 California Giant Berry Farms/Specialized
67579.44Ruth Winder   Lafayette, CA0:27:07.26 273081  73 Peanut Butter & Co. TWENTY12
68584.72Sassan Golafshan   Palo Alto, CA0:27:25.96 169945  23 Form Fitness
69590.00Daniel Farinha (16 - Cat1)   San Jose, CA0:28:02.63 240558  16 Firefighters Cycling

Women - Cat 1/2/3/4/5 - Master - 35-99

 Place Points NameCity, StateTime USAC #BibTeam
1432.63Camille Deluca-Flaherty   Belmont, CA25:42.07 45254  309 Velo Bella
2440.12Janet Gahagen   Mountain View, CA25:42.18 207285  312 Wells Fargo Racing Team
3447.62Elizabeth Benishin   Palo Alto, CA25:49.50 75937  307 Velo Bella
4455.11Kim Wik   Fremont, CA25:49.84 254251  329 Sycomp Racing
5462.61Laurie Furman   Redwood City, CA26:26.66 107768  311 Team Affinity
6470.10Lesley Jensen   Benicia, CA26:27.20 17778  316 One Team Racing
7477.59Patricia Black   San Luis Obispo, CA27:05.61 72039  308 Red Racing
8485.09Sue Lovecchio   Pacific Grove, CA27:12.91 205235  321 Velo Bella
9492.58Andi Smith   Menlo Park, CA27:19.52 33024  327 Webcor/Alto Velo
10500.07Mary Magnani   San Francisco, CA27:54.08 257717  322 Red Racing
11507.57Julie Porter   Auburn, CA27:59.60 176587  325 Velo Bella
12515.06Jean Harvey   San Ramon, CA28:04.80 129688  313 Wells Fargo Racing Team
13522.56Jennifer Van Muckey   Campbell, CA28:38.15 207585  328 Sycomp Racing
14530.05Andrea Atkins   Oakland, CA28:49.58 195672  306 Velo Bella
15537.54Bonnie Forer   Berkeley, CA28:53.04 107187  310 Left Coast Racing Team
16545.04Julie Nevitt   Saratoga, CA29:07.67 136522  323 SJBC
17552.53Narda Roushdi   Berkeley, CA29:20.28 47423  326 Berkeley Bicycle Club (BBC)
18560.02Marsha Kirschbaum   Oakland, CA29:20.42 188195  318 Velo Bella
19567.52Sonja Klein   Oakland, CA29:22.13 272558  319 Sycomp Racing
20575.01Michele Heaton   Santa Cruz, CA29:33.60 273618  314 Bike Trip Symantec
21582.51Phyllis Olrich   Grass Valley, CA29:38.80 125288  324 Victory Velo
22590.00Monica Holt   Saratoga, CA29:55.83 268263  315 Sycomp Racing

Women - Cat 4

 Place Points NameCity, StateTime USAC #BibTeam
1525.55Vanessa Baumann   Alamo, CA26:50.23 271750  552 Wells Fargo Racing Team
2527.94Cybil Silberman   San Francisco, CA26:56.44 325510  574 Early Bird Womens Developmental Cycling Team
3530.32Jocelyn Pogue   Los Angeles, CA27:07.34 306681  572 Herbalife LaGrange
4532.71Ellen Evans   Sacramento, CA27:18.76 310883  560 b+ radsport
5535.10Erica Mikesh   Santa Rosa, CA27:52.14 253972  570 Precision Stone Racing
6537.49Gale DeRosa   Gold River, CA27:56.76 332412  558 Metromint Cycling
7539.87Maryann Schrupp   Reno, NV28:00.72 288460  573 Team TIBCO II
8542.26Sarah Conover   Auburn, CA28:05.63 334218  556 Victory Velo
9544.65Yvonne Walbroehl   Mountain View, CA28:06.44 219164  577 Peninsula Velo/Pomodoro
10547.03Sarah Brodsky   Simi Valley, CA28:13.56 272810  554 Team Dude Girl/Colnago presented by IE Bikes
11549.42Leslie Creed   Dixon, CA28:15.07 158064  557 Davis Bike Club Race Team
12551.81Anne Findlay   Sonora, CA28:18.91 238310  562 Team Type 1
13554.19Tina Huang   San Francisco, CA28:26.87 298240  567 Metromint Cycling
14556.58Catherine Hadsell   Danville, CA28:47.05 289091  566 Wells Fargo Racing Team
15558.97Deanna McKenzie   Santarosa, CA29:22.57 303472  569 Fightin' Bobas
16561.36Heather Lipana   Folsom, CA29:26.62 333090  568 Rio Strada Racing
17563.74Diane Firu   San Jose, CA29:32.92 303975  563 SJBC
18566.13Kaya Cohn   El Cerrito, CA29:41.93 298978  555 Metromint Cycling
19568.52Laura Thompson   Fleming Island, FL29:54.05 283661  576 Taleo Racing
20570.90Andrea Gehlhausen   Pollock Pines, CA29:55.56 272340  564 Team Revolutions
21573.29Melissa Diede   Napa, CA29:57.58 306548  559 Precision Stone Racing
22575.68Adrienne Belliveau   East Palo Alto, CA30:09.03 303420  553 Team Roaring Mouse
23578.06Jill Eyres   Montara, CA30:46.03 282468  561 Team TIBCO II
24580.45June Nguyen   Santa Rosa30:54.79 277526  571 Precision Stone Racing
25582.84Michelle Bandoni   San Jose, CA30:54.97 305567  551 SJBC
26585.23Yoko Kasai   Sanrafael, CA31:29.42 304709  565 Taleo Racing
27587.61Pamela Spencer   Sacramento, CA31:54.97 305466  575 Davis Bike Club Race Team
28590.00Vikki Appel   Pasadena, CA40:12.18 256922  550 PAA/REMAX

Women - Cat 3

 Place Points NameCity, StateTime USAC #BibTeam
1461.46Kelly Crowley   Redwood City, CA24:57.98 256919  973 Metromint Cycling
2466.60Lina Martensson   San Francisco, CA25:06.14 292733  984 Metromint Cycling
3471.74Ruste Parker   Fresno, CA26:18.75 304436  987 Stevens Bicycle Racing
4476.88Ellen Sherrill   South Lake Tahoe, CA26:29.39 299535  990 Davis Bike Club Race Team
5482.02Johanna Trueblood   Davis, CA26:43.86 301301  994 Davis Bike Club Race Team
6487.17jennifer gott   New York, NY26:58.52 307839  977 Red Peloton
7492.31Allyson Kutler   San Francisco, CA27:01.55 304509  982 Red Racing
8497.45Katherine Scott-Smith   San Francisco, CA27:17.39 295113  988 Precision Stone Racing
9502.59Holly Liske   Stanford, CA27:23.12 190109  983 Webcor/Alto Velo
10507.73Kerry Stivaletti   Los Gatos, CA27:36.37 239419  992 Team TIBCO II
11512.87Lauren Catlin   Fairfax, CA27:49.78 256601  972 All Sport Team Swift
12518.02Trudy Bjornsen   Dixon, CA28:01.25 180561  970 Davis Bike Club Race Team
13523.16Margaret Jones   Chico, CA28:04.34 286593  981 Chico Corsa Cycling Club
14528.30Edina Fuzesi   Ventura, CA28:09.06 273151  976 Team Dude Girl/Colnago presented by IE Bikes
15533.44Morgan Bonar   Oakland, CA28:15.50 247685  971 
16538.58Rhonda Serr   Reno28:18.85 278473  989 Dolce Vita Cycling
17543.72Joan Meiners   Logan, UT28:32.82 260054  985 RockyMounts~Izze Racing
18548.87Donna Nice   San Jose, CA28:44.39 310519  986 SJBC
19554.01Marianne Hernandez   Davis, CA29:10.68 68813  980 Davis Bike Club Race Team
20559.15Christine Harris   Saint Helena, CA29:17.73 287965  979 Team TIBCO II
21564.29Nicole Slaton   Davis, CA29:19.64 287914  991 Metromint Cycling
22569.43Ashley Drum   Mill Valley , CA29:32.60 307080  975 Metromint Cycling
23574.57Ivy Wang   San Francisco, CA30:10.86 291752  995 Team Roaring Mouse
24579.72Julie Guthrie   Hawthorne, CA31:08.05 256694  978 NOW-MS Society
25584.86Stephanie Dameral   Vacaville, CA31:24.78 287351  974 Precision Stone Racing
26590.00Ann Stuart   Sacramento, CA31:42.97 250365  993 Touchstone Climbing

Women - Cat 1/2

 Place Points NameCity, StateTime USAC #BibTeam
1Rhae Shaw   23:13.88  745 
2301.11Molly Van Houweling   Berkeley, CA23:33.04 201051  747 Metromint Cycling
3310.14Olivia Dillon   Fairfax, CA23:43.33 232172  722 Peanut Butter & Co. TWENTY12
4319.16Jane Despas   Menlo Park, CA23:48.22 105201  721 
5328.19Elizabeth Newell   Oakland, CA24:17.92 252152  738 Fremont Bank Cycling Team
6337.22Jane Robertson   Davis, CA24:38.46 218607  741 Metromint Cycling
7346.25Cara Gillis   Los Angeles, CA24:39.77 225855  727 Missing Link Training Systems / Special
8355.28Jerika Hutchinson (1 - Cat2)   Mount Shasta, CA24:50.96 219674  731 
9364.30Anna Barensfeld   Ellwood City Pa24:51.53 234148  717 Missing Links Coaching & Training Systems
10373.33Michelle Melka   Baltimore, MD24:55.91 302454  735 Red Racing
11382.36Kristina Seley   San Luis Obispo, CA25:19.57 223809  744 ArtsCyclery.com/Wild Horse Wines
12391.39Haley Juno-Galdes (2 - Cat2)   Menlo Park, CA25:28.89 232473  732 Webcor/Alto Velo
13Rebecca Werner   25:30.19  748 Webcor/Alto Velo
14409.44Amanda Seigle   Citrus Heights, CA25:55.19 203755  743 Metromint Cycling
15418.47Anne Fulton   Palo Alto, CA25:55.57 275624  726 Metromint Cycling
16427.50Vanessa Drigo   Charlotte, NC25:57.06 257356  724 Vanderkitten Racing presented by Kenda
17436.53Lauraleen Fenech   San Francisco, CA26:00.11 224272  725 Los Gatos
18445.55Ryan Hostetter (3 - Cat2)   San Luis Obispo, CA26:04.75 191767  730 Metromint Cycling
19454.58Anna Davenport (4 - Cat2)   San Anselmo, CA26:18.61 198809  720 Los Gatos
20463.61Jennie Phillips   Danville, CA26:21.36 203722  739 Wells Fargo Racing Team
21472.64Amy McGuire   Jamaica Plain, MA26:22.46 221594  734 Wheelworks Racing
22481.67Josephine Morgan   Oakland, CA26:22.94 242553  737 Michael David Winery Cycling Team
23Leah Guloien   26:25.43  728 Missing Link Training Systems / Special
24499.72Jane Wolcott (5 - Cat2)   Menlo Park, CA26:28.81 294264  749 Webcor/Alto Velo
25508.75Christine Sodaro   Tiburon, CA26:53.87 295205  746 Red Peloton
26517.78Lucia Mokres   Redwood City, CA27:07.64 262113  736 Los Gatos
27526.80April Hamlin   El Dorado Hills, CA27:22.57 266244  729 Los Gatos
28535.83Beverly Chaney (6 - Cat2)   Carmel, CA27:32.34 221127  719 Touchstone Climbing
29Julie Bellerose   27:33.89  718 Metromint Cycling
30553.89Courtney Dimpel (7 - Cat2)   Aptos, CA27:35.06 302140  723 BSA RACING
31562.92Hanan Alves-Hyde (8 - Cat2)   Albany, CA28:00.69 234966  715 Peanut Butter & Co. TWENTY12
32571.94Kira Prokopakis   Santa Clara, CA28:42.65 283149  740 Los Gatos
33580.97Amy Russo   Santa Cruz, CA29:30.46 134488  742 Red Racing
34590.00Mary Ellen Ash   Menlo Park, CA30:42.25 254874  716 Metromint Cycling

Report missing or incorrect license numbers

Volkswagen
SpySierra NevadaUSACDFBonk BreakerShimano
UCI USA Cycling is the official governing body for all disciplines of competitive cycling in the United States. The 501c3, membership-based organization aims both to achieve sustained success in international cycling competition and to grow competitive cycling in America while delivering an exceptional customer experience.
View Children's Online Privacy Protection Policy
US Olympic Committee